Regional Weather Roundup
Issued by NWS

Home | Current Version | Previous Version | Text Only | Print | Product List | Glossary Off
Versions: 1 2 3 4 5 6 7 8 9 10 11 12 13 14 15 16 17 18 19 20 21 22 23 24 25 26 27 28 29 30 31 32 33 34 35 36 37 38 39 40 41 42 43 44 45 46 47 48 49 50

000
ASUS45 KCYS 250310
RWRWY

WYOMING REGIONAL WEATHER ROUNDUP
NATIONAL WEATHER SERVICE CHEYENNE WY
900 PM MDT FRI APR 24 2015

NOTE:  "FAIR" INDICATES FEW OR NO CLOUDS BELOW 12,000 FEET
WITH NO SIGNIFICANT WEATHER AND/OR OBSTRUCTIONS TO VISIBILITY.

WYZ001-250400-
YELLOWSTONE NATIONAL PARK

CITY           SKY/WX    TMP DP  RH WIND       PRES   REMARKS
LK YELLOWSTONE   N/A     33  32  96 VRB3      29.75S
W YELLOWSTONE  NOT AVBL

$$
WYZ002>013-054>058-071-098>099-250400-
NORTHERN WYOMING

CITY           SKY/WX    TMP DP  RH WIND       PRES   REMARKS
JACKSON        MOCLDY    39  39 100 S5        29.73S
CODY           CLOUDY    50  37  62 SW13G20   29.61R
GREYBULL       MOCLDY    63  25  23 W3        29.51R
WORLAND        CLOUDY    64  29  26 SW12G30   29.53R
SHERIDAN       FAIR      52  39  61 SE3       29.61S
BUFFALO        FAIR      47  41  80 SW7       29.66R
GILLETTE       FAIR      54  40  59 CALM      29.62S
HULETT         FAIR      50  34  53 E6        29.65R
NEWCASTLE      FAIR      46  37  71 CALM      29.64R

$$
WYZ014>020-022>026-101>103-250400-
CENTRAL WYOMING

CITY           SKY/WX    TMP DP  RH WIND       PRES   REMARKS
BIG PINEY      CLOUDY    38  35  89 E6        29.76R WCI  33
PINEDALE       LGT RAIN  36  36 100 E9        29.75F WCI  29
DUBOIS         CLOUDY    39  32  75 NW10      29.71R WCI  32
LANDER         FAIR      52  29  41 SW9       29.61R
RIVERTON       FAIR      51  32  48 NW9       29.62R
CASPER         FAIR      51  34  52 S17       29.63R
DOUGLAS        CLOUDY    52  41  66 SE5       29.67R

$$
WYZ021-027>030-104>119-250400-
SOUTHERN WYOMING

CITY           SKY/WX    TMP DP  RH WIND       PRES   REMARKS
EVANSTON       FAIR      39  36  89 SW9       29.75F WCI  33
KEMMERER       CLOUDY    37  36  93 W6        29.76S WCI  33
FORT BRIDGER   PTCLDY    41  39  93 W8        29.78S
ROCK SPRINGS   CLOUDY    42  35  76 W23       29.77R
DIXON          FAIR      42  37  80 E16       29.79S
RAWLINS        FAIR      41  31  67 SW6       29.74S
SARATOGA       FAIR      41  34  75 MISG      29.78S
LARAMIE        MOCLDY    41  34  76 W12       29.76R
CHEYENNE       LGT RAIN  49  35  58 W23G35    29.71R
TORRINGTON     FAIR      52  44  74 CALM      29.60S
PINE BLUFFS    FAIR      43  37  81 W5        29.66R

$$



USA.gov is the U.S. government's official web portal to all federal, state and local government web resources and services.